Year,Month,Day,Hour,Minute,Value (Times are PST for temperature in C)
2020,12,06,00,00,9.10
2020,12,06,00,01,9.10
2020,12,06,00,02,9.10
2020,12,06,00,03,9.10
2020,12,06,00,04,9.10
2020,12,06,00,05,9.10
2020,12,06,00,06,9.20
2020,12,06,00,07,9.20
2020,12,06,00,08,9.20
2020,12,06,00,09,9.20
2020,12,06,00,10,9.20
2020,12,06,00,11,9.10
2020,12,06,00,12,9.10
2020,12,06,00,13,9.10
2020,12,06,00,14,9.00
2020,12,06,00,15,8.90
2020,12,06,00,16,8.90
2020,12,06,00,17,8.80
2020,12,06,00,18,8.80
2020,12,06,00,19,8.80
2020,12,06,00,20,8.70
2020,12,06,00,21,8.70
2020,12,06,00,22,8.60
2020,12,06,00,23,8.60
2020,12,06,00,24,8.60
2020,12,06,00,25,8.50
2020,12,06,00,26,8.50
2020,12,06,00,27,8.40
2020,12,06,00,28,8.30
2020,12,06,00,29,8.30
2020,12,06,00,30,8.20
2020,12,06,00,31,8.20
2020,12,06,00,32,8.10
2020,12,06,00,33,8.10
2020,12,06,00,34,8.10
2020,12,06,00,35,8.10
2020,12,06,00,36,8.00
2020,12,06,00,37,8.00
2020,12,06,00,38,8.00
2020,12,06,00,39,8.00
2020,12,06,00,40,8.00
2020,12,06,00,41,8.00
2020,12,06,00,42,8.00
2020,12,06,00,43,8.00
2020,12,06,00,44,8.00
2020,12,06,00,45,8.00
2020,12,06,00,46,8.00
2020,12,06,00,47,7.90
2020,12,06,00,48,7.90
2020,12,06,00,49,7.90
2020,12,06,00,50,7.90
2020,12,06,00,51,7.90
2020,12,06,00,52,7.90
2020,12,06,00,53,7.90
2020,12,06,00,54,7.90
2020,12,06,00,55,7.90
2020,12,06,00,56,8.00
2020,12,06,00,57,8.00
2020,12,06,00,58,8.00
2020,12,06,00,59,8.00
2020,12,06,01,00,8.00
2020,12,06,01,01,8.10
2020,12,06,01,02,8.10
2020,12,06,01,03,8.10
2020,12,06,01,04,8.10
2020,12,06,01,05,8.10
2020,12,06,01,06,8.00
2020,12,06,01,07,8.10
2020,12,06,01,08,8.10
2020,12,06,01,09,8.10
2020,12,06,01,10,8.10
2020,12,06,01,11,8.10
2020,12,06,01,12,8.20
2020,12,06,01,13,8.20
2020,12,06,01,14,8.20
2020,12,06,01,15,8.30
2020,12,06,01,16,8.30
2020,12,06,01,17,8.30
2020,12,06,01,18,8.40
2020,12,06,01,19,8.50
2020,12,06,01,20,8.50
2020,12,06,01,21,8.60
2020,12,06,01,22,8.60
2020,12,06,01,23,8.70
2020,12,06,01,24,8.70
2020,12,06,01,25,8.70
2020,12,06,01,26,8.70
2020,12,06,01,27,8.70
2020,12,06,01,28,8.70
2020,12,06,01,29,8.70
2020,12,06,01,30,8.70
2020,12,06,01,31,8.60
2020,12,06,01,32,8.60
2020,12,06,01,33,8.50
2020,12,06,01,34,8.40
2020,12,06,01,35,8.40
2020,12,06,01,36,8.30
2020,12,06,01,37,8.30
2020,12,06,01,38,8.20
2020,12,06,01,39,8.20
2020,12,06,01,40,8.10
2020,12,06,01,41,8.10
2020,12,06,01,42,8.10
2020,12,06,01,43,8.10
2020,12,06,01,44,8.00
2020,12,06,01,45,8.00
2020,12,06,01,46,8.00
2020,12,06,01,47,7.90
2020,12,06,01,48,7.90
2020,12,06,01,49,8.00
2020,12,06,01,50,8.00
2020,12,06,01,51,8.00
2020,12,06,01,52,8.10
2020,12,06,01,53,8.00
2020,12,06,01,54,8.00
2020,12,06,01,55,8.00
2020,12,06,01,56,8.00
2020,12,06,01,57,8.10
2020,12,06,01,58,8.20
2020,12,06,01,59,8.20
2020,12,06,02,00,8.30
2020,12,06,02,01,8.40
2020,12,06,02,02,8.50
2020,12,06,02,03,8.50
2020,12,06,02,04,8.60
2020,12,06,02,05,8.60
2020,12,06,02,06,8.60
2020,12,06,02,07,8.60
2020,12,06,02,08,8.60
2020,12,06,02,09,8.50
2020,12,06,02,10,8.40
2020,12,06,02,11,8.40
2020,12,06,02,12,8.30
2020,12,06,02,13,8.30
2020,12,06,02,14,8.30
2020,12,06,02,15,8.30
2020,12,06,02,16,8.30
2020,12,06,02,17,8.30
2020,12,06,02,18,8.30
2020,12,06,02,19,8.30
2020,12,06,02,20,8.30
2020,12,06,02,21,8.40
2020,12,06,02,22,8.40
2020,12,06,02,23,8.40
2020,12,06,02,24,8.40
2020,12,06,02,25,8.40
2020,12,06,02,26,8.40
2020,12,06,02,27,8.40
2020,12,06,02,28,8.40
2020,12,06,02,29,8.40
2020,12,06,02,30,8.40
2020,12,06,02,31,8.40
2020,12,06,02,32,8.30
2020,12,06,02,33,8.30
2020,12,06,02,34,8.30
2020,12,06,02,35,8.30
2020,12,06,02,36,8.20
2020,12,06,02,37,8.20
2020,12,06,02,38,8.20
2020,12,06,02,39,8.20
2020,12,06,02,40,8.20
2020,12,06,02,41,8.20
2020,12,06,02,42,8.20
2020,12,06,02,43,8.20
2020,12,06,02,44,8.20
2020,12,06,02,45,8.20
2020,12,06,02,46,8.10
2020,12,06,02,47,8.10
2020,12,06,02,48,8.10
2020,12,06,02,49,8.00
2020,12,06,02,50,7.90
2020,12,06,02,51,7.90
2020,12,06,02,52,7.90
2020,12,06,02,53,7.80
2020,12,06,02,54,7.80
2020,12,06,02,55,7.80
2020,12,06,02,56,7.80
2020,12,06,02,57,7.80
2020,12,06,02,58,7.80
2020,12,06,02,59,7.80
2020,12,06,03,00,7.80
2020,12,06,03,01,7.70
2020,12,06,03,02,7.70
2020,12,06,03,03,7.70
2020,12,06,03,04,7.60
2020,12,06,03,05,7.60
2020,12,06,03,06,7.60
2020,12,06,03,07,7.60
2020,12,06,03,08,7.50
2020,12,06,03,09,7.50
2020,12,06,03,10,7.50
2020,12,06,03,11,7.50
2020,12,06,03,12,7.50
2020,12,06,03,13,7.50
2020,12,06,03,14,7.50
2020,12,06,03,15,7.50
2020,12,06,03,16,7.40
2020,12,06,03,17,7.50
2020,12,06,03,18,7.40
2020,12,06,03,19,7.40
2020,12,06,03,20,7.40
2020,12,06,03,21,7.40
2020,12,06,03,22,7.40
2020,12,06,03,23,7.40
2020,12,06,03,24,7.40
2020,12,06,03,25,7.40
2020,12,06,03,26,7.40
2020,12,06,03,27,7.40
2020,12,06,03,28,7.40
2020,12,06,03,29,7.40
2020,12,06,03,30,7.40
2020,12,06,03,31,7.40
2020,12,06,03,32,7.50
2020,12,06,03,33,7.50
2020,12,06,03,34,7.50
2020,12,06,03,35,7.50
2020,12,06,03,36,7.50
2020,12,06,03,37,7.50
2020,12,06,03,38,7.50
2020,12,06,03,39,7.50
2020,12,06,03,40,7.50
2020,12,06,03,41,7.50
2020,12,06,03,42,7.50
2020,12,06,03,43,7.50
2020,12,06,03,44,7.50
2020,12,06,03,45,7.50
2020,12,06,03,46,7.50
2020,12,06,03,47,7.50
2020,12,06,03,48,7.50
2020,12,06,03,49,7.50
2020,12,06,03,50,7.50
2020,12,06,03,51,7.50
2020,12,06,03,52,7.50
2020,12,06,03,53,7.50
2020,12,06,03,54,7.60
2020,12,06,03,55,7.60
2020,12,06,03,56,7.60
2020,12,06,03,57,7.60
2020,12,06,03,58,7.70
2020,12,06,03,59,7.60
2020,12,06,04,00,7.60
2020,12,06,04,01,7.60
2020,12,06,04,02,7.60
2020,12,06,04,03,7.60
2020,12,06,04,04,7.60
2020,12,06,04,05,7.60
2020,12,06,04,06,7.60
2020,12,06,04,07,7.60
2020,12,06,04,08,7.60
2020,12,06,04,09,7.60
2020,12,06,04,10,7.50
2020,12,06,04,11,7.50
2020,12,06,04,12,7.50
2020,12,06,04,13,7.50
2020,12,06,04,14,7.50
2020,12,06,04,15,7.60
2020,12,06,04,16,7.60
2020,12,06,04,17,7.60
2020,12,06,04,18,7.60
2020,12,06,04,19,7.60
2020,12,06,04,20,7.60
2020,12,06,04,21,7.60
2020,12,06,04,22,7.60
2020,12,06,04,23,7.50
2020,12,06,04,24,7.50
2020,12,06,04,25,7.50
2020,12,06,04,26,7.50
2020,12,06,04,27,7.40
2020,12,06,04,28,7.40
2020,12,06,04,29,7.40
2020,12,06,04,30,7.40
2020,12,06,04,31,7.40
2020,12,06,04,32,7.40
2020,12,06,04,33,7.30
2020,12,06,04,34,7.30
2020,12,06,04,35,7.30
2020,12,06,04,36,7.30
2020,12,06,04,37,7.30
2020,12,06,04,38,7.30
2020,12,06,04,39,7.30
2020,12,06,04,40,7.30
2020,12,06,04,41,7.20
2020,12,06,04,42,7.20
2020,12,06,04,43,7.20
2020,12,06,04,44,7.20
2020,12,06,04,45,7.20
2020,12,06,04,46,7.20
2020,12,06,04,47,7.10
2020,12,06,04,48,7.10
2020,12,06,04,49,7.10
2020,12,06,04,50,7.10
2020,12,06,04,51,7.00
2020,12,06,04,52,7.00
2020,12,06,04,53,6.90
2020,12,06,04,54,6.90
2020,12,06,04,55,6.90
2020,12,06,04,56,6.80
2020,12,06,04,57,6.80
2020,12,06,04,58,6.70
2020,12,06,04,59,6.70
2020,12,06,05,00,6.60
2020,12,06,05,01,6.60
2020,12,06,05,02,6.60
2020,12,06,05,03,6.50
2020,12,06,05,04,6.50
2020,12,06,05,05,6.40
2020,12,06,05,06,6.40
2020,12,06,05,07,6.30
2020,12,06,05,08,6.30
2020,12,06,05,09,6.30
2020,12,06,05,10,6.30
2020,12,06,05,11,6.30
2020,12,06,05,12,6.30
2020,12,06,05,13,6.30
2020,12,06,05,14,6.30
2020,12,06,05,15,6.40
2020,12,06,05,16,6.40
2020,12,06,05,17,6.50
2020,12,06,05,18,6.50
2020,12,06,05,19,6.50
2020,12,06,05,20,6.60
2020,12,06,05,21,6.60
2020,12,06,05,22,6.60
2020,12,06,05,23,6.60
2020,12,06,05,24,6.60
2020,12,06,05,25,6.50
2020,12,06,05,26,6.50
2020,12,06,05,27,6.50
2020,12,06,05,28,6.50
2020,12,06,05,29,6.50
2020,12,06,05,30,6.60
2020,12,06,05,31,6.60
2020,12,06,05,32,6.60
2020,12,06,05,33,6.60
2020,12,06,05,34,6.70
2020,12,06,05,35,6.70
2020,12,06,05,36,6.70
2020,12,06,05,37,6.70
2020,12,06,05,38,6.70
2020,12,06,05,39,6.70
2020,12,06,05,40,6.80
2020,12,06,05,41,6.80
2020,12,06,05,42,6.80
2020,12,06,05,43,6.80
2020,12,06,05,44,6.80
2020,12,06,05,45,6.80
2020,12,06,05,46,6.80
2020,12,06,05,47,6.80
2020,12,06,05,48,6.80
2020,12,06,05,49,6.80
2020,12,06,05,50,6.80
2020,12,06,05,51,6.80
2020,12,06,05,52,6.80
2020,12,06,05,53,6.80
2020,12,06,05,54,6.80
2020,12,06,05,55,6.80
2020,12,06,05,56,6.80
2020,12,06,05,57,6.80
2020,12,06,05,58,6.80
2020,12,06,05,59,6.80
2020,12,06,06,00,6.80
2020,12,06,06,01,6.80
2020,12,06,06,02,6.80
2020,12,06,06,03,6.80
2020,12,06,06,04,6.80
2020,12,06,06,05,6.80
2020,12,06,06,06,6.80
2020,12,06,06,07,6.80
2020,12,06,06,08,6.80
2020,12,06,06,09,6.80
2020,12,06,06,10,6.80
2020,12,06,06,11,6.90
2020,12,06,06,12,6.90
2020,12,06,06,13,6.90
2020,12,06,06,14,6.90
2020,12,06,06,15,6.90
2020,12,06,06,16,6.90
2020,12,06,06,17,6.90
2020,12,06,06,18,7.00
2020,12,06,06,19,7.00
2020,12,06,06,20,7.10
2020,12,06,06,21,7.10
2020,12,06,06,22,7.10
2020,12,06,06,23,7.10
2020,12,06,06,24,7.10
2020,12,06,06,25,7.20
2020,12,06,06,26,7.20
2020,12,06,06,27,7.20
2020,12,06,06,28,7.20
2020,12,06,06,29,7.20
2020,12,06,06,30,7.30
2020,12,06,06,31,7.30
2020,12,06,06,32,7.30
2020,12,06,06,33,7.30
2020,12,06,06,34,7.30
2020,12,06,06,35,7.30
2020,12,06,06,36,7.30
2020,12,06,06,37,7.30
2020,12,06,06,38,7.40
2020,12,06,06,39,7.40
2020,12,06,06,40,7.40
2020,12,06,06,41,7.40
2020,12,06,06,42,7.40
2020,12,06,06,43,7.50
2020,12,06,06,44,7.50
2020,12,06,06,45,7.50
2020,12,06,06,46,7.50
2020,12,06,06,47,7.50
2020,12,06,06,48,7.50
2020,12,06,06,49,7.50
2020,12,06,06,50,7.50
2020,12,06,06,51,7.50
2020,12,06,06,52,7.50
2020,12,06,06,53,7.50
2020,12,06,06,54,7.40
2020,12,06,06,55,7.40
2020,12,06,06,56,7.40
2020,12,06,06,57,7.40
2020,12,06,06,58,7.40
2020,12,06,06,59,7.40
2020,12,06,07,00,7.40
2020,12,06,07,01,7.40
2020,12,06,07,02,7.40
2020,12,06,07,03,7.40
2020,12,06,07,04,7.40
2020,12,06,07,05,7.40
2020,12,06,07,06,7.40
2020,12,06,07,07,7.40
2020,12,06,07,08,7.40
2020,12,06,07,09,7.40
2020,12,06,07,10,7.40
2020,12,06,07,11,7.40
2020,12,06,07,12,7.40
2020,12,06,07,13,7.40
2020,12,06,07,14,7.40
2020,12,06,07,15,7.40
2020,12,06,07,16,7.40
2020,12,06,07,17,7.40
2020,12,06,07,18,7.40
2020,12,06,07,19,7.50
2020,12,06,07,20,7.50
2020,12,06,07,21,7.50
2020,12,06,07,22,7.50
2020,12,06,07,23,7.60
2020,12,06,07,24,7.60
2020,12,06,07,25,7.50
2020,12,06,07,26,7.60
2020,12,06,07,27,7.60
2020,12,06,07,28,7.60
2020,12,06,07,29,7.60
2020,12,06,07,30,7.50
2020,12,06,07,31,7.50
2020,12,06,07,32,7.50
2020,12,06,07,33,7.50
2020,12,06,07,34,7.50
2020,12,06,07,35,7.50
2020,12,06,07,36,7.50
2020,12,06,07,37,7.50
2020,12,06,07,38,7.50
2020,12,06,07,39,7.50
2020,12,06,07,40,7.50
2020,12,06,07,41,7.50
2020,12,06,07,42,7.50
2020,12,06,07,43,7.50
2020,12,06,07,44,7.60
2020,12,06,07,45,7.60
2020,12,06,07,46,7.60
2020,12,06,07,47,7.60
2020,12,06,07,48,7.60
2020,12,06,07,49,7.60
2020,12,06,07,50,7.60
2020,12,06,07,51,7.60
2020,12,06,07,52,7.70
2020,12,06,07,53,7.70
2020,12,06,07,54,7.70
2020,12,06,07,55,7.70
2020,12,06,07,56,7.70
2020,12,06,07,57,7.70
2020,12,06,07,58,7.80
2020,12,06,07,59,7.80
2020,12,06,08,00,7.80
2020,12,06,08,01,7.80
2020,12,06,08,02,7.80
2020,12,06,08,03,7.80
2020,12,06,08,04,7.90
2020,12,06,08,05,7.90
2020,12,06,08,06,8.00
2020,12,06,08,07,8.00
2020,12,06,08,08,8.00
2020,12,06,08,09,8.10
2020,12,06,08,10,8.10
2020,12,06,08,11,8.10
2020,12,06,08,12,8.10
2020,12,06,08,13,8.10
2020,12,06,08,14,8.10
2020,12,06,08,15,8.20
2020,12,06,08,16,8.20
2020,12,06,08,17,8.20
2020,12,06,08,18,8.20
2020,12,06,08,19,8.20
2020,12,06,08,20,8.20
2020,12,06,08,21,8.30
2020,12,06,08,22,8.30
2020,12,06,08,23,8.30
2020,12,06,08,24,8.40
2020,12,06,08,25,8.40
2020,12,06,08,26,8.40
2020,12,06,08,27,8.40
2020,12,06,08,28,8.40
2020,12,06,08,29,8.50
2020,12,06,08,30,8.50
2020,12,06,08,31,8.50
2020,12,06,08,32,8.50
2020,12,06,08,33,8.50
2020,12,06,08,34,8.60
2020,12,06,08,35,8.60
2020,12,06,08,36,8.60
2020,12,06,08,37,8.60
2020,12,06,08,38,8.60
2020,12,06,08,39,8.60
2020,12,06,08,40,8.60
2020,12,06,08,41,8.60
2020,12,06,08,42,8.60
2020,12,06,08,43,8.60
2020,12,06,08,44,8.60
2020,12,06,08,45,8.60
2020,12,06,08,46,8.60
2020,12,06,08,47,8.60
2020,12,06,08,48,8.60
2020,12,06,08,49,8.70
2020,12,06,08,50,8.70
2020,12,06,08,51,8.70
2020,12,06,08,52,8.70
2020,12,06,08,53,8.80
2020,12,06,08,54,8.80
2020,12,06,08,55,8.80
2020,12,06,08,56,8.80
2020,12,06,08,57,8.80
2020,12,06,08,58,8.90
2020,12,06,08,59,8.90
2020,12,06,09,00,8.90
2020,12,06,09,01,9.00
2020,12,06,09,02,9.00
2020,12,06,09,03,9.00
2020,12,06,09,04,9.00
2020,12,06,09,05,9.10
2020,12,06,09,06,9.10
2020,12,06,09,07,9.10
2020,12,06,09,08,9.10
2020,12,06,09,09,9.20
2020,12,06,09,10,9.20
2020,12,06,09,11,9.20
2020,12,06,09,12,9.30
2020,12,06,09,13,9.30
2020,12,06,09,14,9.30
2020,12,06,09,15,9.40
2020,12,06,09,16,9.40
2020,12,06,09,17,9.50
2020,12,06,09,18,9.50
2020,12,06,09,19,9.60
2020,12,06,09,20,9.60
2020,12,06,09,21,9.70
2020,12,06,09,22,9.70
2020,12,06,09,23,9.70
2020,12,06,09,24,9.80
2020,12,06,09,25,9.80
2020,12,06,09,26,9.80
2020,12,06,09,27,9.90
2020,12,06,09,28,9.90
2020,12,06,09,29,9.90
2020,12,06,09,30,9.90
2020,12,06,09,31,9.90
2020,12,06,09,32,9.90
2020,12,06,09,33,9.90
2020,12,06,09,34,9.90
2020,12,06,09,35,9.90
2020,12,06,09,36,9.90
2020,12,06,09,37,9.90
2020,12,06,09,38,9.90
2020,12,06,09,39,9.90
2020,12,06,09,40,9.90
2020,12,06,09,41,10.00
2020,12,06,09,42,10.00
2020,12,06,09,43,10.00
2020,12,06,09,44,10.00
2020,12,06,09,45,10.00
2020,12,06,09,46,10.00
2020,12,06,09,47,10.00
2020,12,06,09,48,10.10
2020,12,06,09,49,10.10
2020,12,06,09,50,10.10
2020,12,06,09,51,10.10
2020,12,06,09,52,10.10
2020,12,06,09,53,10.10
2020,12,06,09,54,10.10
2020,12,06,09,55,10.10
2020,12,06,09,56,10.10
2020,12,06,09,57,10.20
2020,12,06,09,58,10.20
2020,12,06,09,59,10.20
2020,12,06,10,00,10.20
2020,12,06,10,01,10.20
2020,12,06,10,02,10.20
2020,12,06,10,03,10.30
2020,12,06,10,04,10.30
2020,12,06,10,05,10.30
2020,12,06,10,06,10.30
2020,12,06,10,07,10.30
2020,12,06,10,08,10.30
2020,12,06,10,09,10.30
2020,12,06,10,10,10.30
2020,12,06,10,11,10.30
2020,12,06,10,12,10.30
2020,12,06,10,13,10.30
2020,12,06,10,14,10.30
2020,12,06,10,15,10.30
2020,12,06,10,16,10.30
2020,12,06,10,17,10.30
2020,12,06,10,18,10.30
2020,12,06,10,19,10.30
2020,12,06,10,20,10.30
2020,12,06,10,21,10.30
2020,12,06,10,22,10.30
2020,12,06,10,23,10.30
2020,12,06,10,24,10.30
2020,12,06,10,25,10.30
2020,12,06,10,26,10.40
2020,12,06,10,27,10.40
2020,12,06,10,28,10.40
2020,12,06,10,29,10.40
2020,12,06,10,30,10.40
2020,12,06,10,31,10.40
2020,12,06,10,32,10.40
2020,12,06,10,33,10.40
2020,12,06,10,34,10.40
2020,12,06,10,35,10.50
2020,12,06,10,36,10.50
2020,12,06,10,37,10.50
2020,12,06,10,38,10.50
2020,12,06,10,39,10.50
2020,12,06,10,40,10.50
2020,12,06,10,41,10.60
2020,12,06,10,42,10.60
2020,12,06,10,43,10.60
2020,12,06,10,44,10.60
2020,12,06,10,45,10.60
2020,12,06,10,46,10.60
2020,12,06,10,47,10.60
2020,12,06,10,48,10.50
2020,12,06,10,49,10.50
2020,12,06,10,50,10.50
2020,12,06,10,51,10.50
2020,12,06,10,52,10.50
2020,12,06,10,53,10.50
2020,12,06,10,54,10.60
2020,12,06,10,55,10.60
2020,12,06,10,56,10.60
2020,12,06,10,57,10.60
2020,12,06,10,58,10.60
2020,12,06,10,59,10.70
2020,12,06,11,00,10.70
2020,12,06,11,01,10.70
2020,12,06,11,02,10.70
2020,12,06,11,03,10.80
2020,12,06,11,04,10.80
2020,12,06,11,05,10.80
2020,12,06,11,06,10.80
2020,12,06,11,07,10.90
2020,12,06,11,08,10.90
2020,12,06,11,09,10.90
2020,12,06,11,10,10.90
2020,12,06,11,11,11.00
2020,12,06,11,12,11.00
2020,12,06,11,13,11.00
2020,12,06,11,14,11.10
2020,12,06,11,15,11.10
2020,12,06,11,16,11.10
2020,12,06,11,17,11.10
2020,12,06,11,18,11.20
2020,12,06,11,19,11.20
2020,12,06,11,20,11.10
2020,12,06,11,21,11.10
2020,12,06,11,22,11.10
2020,12,06,11,23,11.10
2020,12,06,11,24,11.00
2020,12,06,11,25,11.00
2020,12,06,11,26,11.00
2020,12,06,11,27,11.00
2020,12,06,11,28,11.00
2020,12,06,11,29,10.90
2020,12,06,11,30,10.90
2020,12,06,11,31,10.80
2020,12,06,11,32,10.80
2020,12,06,11,33,10.80
2020,12,06,11,34,10.80
2020,12,06,11,35,10.80
2020,12,06,11,36,10.80
2020,12,06,11,37,10.80
2020,12,06,11,38,10.80
2020,12,06,11,39,10.80
2020,12,06,11,40,10.80
2020,12,06,11,41,10.80
2020,12,06,11,42,10.80
2020,12,06,11,43,10.80
2020,12,06,11,44,10.80
2020,12,06,11,45,10.70
2020,12,06,11,46,10.70
2020,12,06,11,47,10.70
2020,12,06,11,48,10.70
2020,12,06,11,49,10.70
2020,12,06,11,50,10.70
2020,12,06,11,51,10.70
2020,12,06,11,52,10.80
2020,12,06,11,53,10.80
2020,12,06,11,54,10.80
2020,12,06,11,55,10.80
2020,12,06,11,56,10.80
2020,12,06,11,57,10.80
2020,12,06,11,58,10.80
2020,12,06,11,59,10.80
2020,12,06,12,00,10.80
2020,12,06,12,01,10.80
2020,12,06,12,02,10.80
2020,12,06,12,03,10.80
2020,12,06,12,04,10.70
2020,12,06,12,05,10.70
2020,12,06,12,06,10.80
2020,12,06,12,07,10.80
2020,12,06,12,08,10.80
2020,12,06,12,09,10.80
2020,12,06,12,10,10.90
2020,12,06,12,11,10.90
2020,12,06,12,12,10.90
2020,12,06,12,13,10.90
2020,12,06,12,14,11.00
2020,12,06,12,15,11.00
2020,12,06,12,16,11.10
2020,12,06,12,17,11.10
2020,12,06,12,18,11.10
2020,12,06,12,19,11.20
2020,12,06,12,20,11.20
2020,12,06,12,21,11.20
2020,12,06,12,22,11.20
2020,12,06,12,23,11.30
2020,12,06,12,24,11.30
2020,12,06,12,25,11.40
2020,12,06,12,26,11.40
2020,12,06,12,27,11.40
2020,12,06,12,28,11.50
2020,12,06,12,29,11.60
2020,12,06,12,30,11.60
2020,12,06,12,31,11.70
2020,12,06,12,32,11.80
2020,12,06,12,33,11.80
2020,12,06,12,34,11.90
2020,12,06,12,35,12.00
2020,12,06,12,36,12.00
2020,12,06,12,37,12.00
2020,12,06,12,38,11.90
2020,12,06,12,39,11.80
2020,12,06,12,40,11.80
2020,12,06,12,41,11.80
2020,12,06,12,42,11.80
2020,12,06,12,43,11.80
2020,12,06,12,44,11.90
2020,12,06,12,45,11.90
2020,12,06,12,46,11.90
2020,12,06,12,47,11.90
2020,12,06,12,48,11.90
2020,12,06,12,49,12.00
2020,12,06,12,50,12.00
2020,12,06,12,51,12.00
2020,12,06,12,52,12.10
2020,12,06,12,53,12.10
2020,12,06,12,54,12.10
2020,12,06,12,55,12.10
2020,12,06,12,56,12.10
2020,12,06,12,57,12.10
2020,12,06,12,58,12.10
2020,12,06,12,59,12.10
2020,12,06,13,00,12.10
2020,12,06,13,01,12.00
2020,12,06,13,02,12.00
2020,12,06,13,03,12.00
2020,12,06,13,04,11.90
2020,12,06,13,05,11.90
2020,12,06,13,06,11.90
2020,12,06,13,07,11.90
2020,12,06,13,08,11.80
2020,12,06,13,09,11.80
2020,12,06,13,10,11.80
2020,12,06,13,11,11.70
2020,12,06,13,12,11.70
2020,12,06,13,13,11.70
2020,12,06,13,14,11.60
2020,12,06,13,15,11.60
2020,12,06,13,16,11.50
2020,12,06,13,17,11.50
2020,12,06,13,18,11.40
2020,12,06,13,19,11.40
2020,12,06,13,20,11.40
2020,12,06,13,21,11.30
2020,12,06,13,22,11.30
2020,12,06,13,23,11.30
2020,12,06,13,24,11.30
2020,12,06,13,25,11.30
2020,12,06,13,26,11.30
2020,12,06,13,27,11.30
2020,12,06,13,28,11.20
2020,12,06,13,29,11.10
2020,12,06,13,30,11.10
2020,12,06,13,31,11.00
2020,12,06,13,32,10.90
2020,12,06,13,33,10.90
2020,12,06,13,34,10.80
2020,12,06,13,35,10.80
2020,12,06,13,36,10.70
2020,12,06,13,37,10.70
2020,12,06,13,38,10.70
2020,12,06,13,39,10.60
2020,12,06,13,40,10.60
2020,12,06,13,41,10.60
2020,12,06,13,42,10.60
2020,12,06,13,43,10.60
2020,12,06,13,44,10.60
2020,12,06,13,45,10.50
2020,12,06,13,46,10.50
2020,12,06,13,47,10.50
2020,12,06,13,48,10.50
2020,12,06,13,49,10.50
2020,12,06,13,50,10.50
2020,12,06,13,51,10.40
2020,12,06,13,52,10.40
2020,12,06,13,53,10.40
2020,12,06,13,54,10.40
2020,12,06,13,55,10.40
2020,12,06,13,56,10.40
2020,12,06,13,57,10.40
2020,12,06,13,58,10.40
2020,12,06,13,59,10.40
2020,12,06,14,00,10.40
2020,12,06,14,01,10.40
2020,12,06,14,02,10.40
2020,12,06,14,03,10.40
2020,12,06,14,04,10.40
2020,12,06,14,05,10.40
2020,12,06,14,06,10.40
2020,12,06,14,07,10.40
2020,12,06,14,08,10.40
2020,12,06,14,09,10.40
2020,12,06,14,10,10.40
2020,12,06,14,11,10.40
2020,12,06,14,12,10.40
2020,12,06,14,13,10.40
2020,12,06,14,14,10.40
2020,12,06,14,15,10.40
2020,12,06,14,16,10.40
2020,12,06,14,17,10.40
2020,12,06,14,18,10.40
2020,12,06,14,19,10.40
2020,12,06,14,20,10.40
2020,12,06,14,21,10.40
2020,12,06,14,22,10.40
2020,12,06,14,23,10.40
2020,12,06,14,24,10.40
2020,12,06,14,25,10.40
2020,12,06,14,26,10.40
2020,12,06,14,27,10.40
2020,12,06,14,28,10.40
2020,12,06,14,29,10.40
2020,12,06,14,30,10.40
2020,12,06,14,31,10.40
2020,12,06,14,32,10.40
2020,12,06,14,33,10.40
2020,12,06,14,34,10.40
2020,12,06,14,35,10.40
2020,12,06,14,36,10.40
2020,12,06,14,37,10.40
2020,12,06,14,38,10.40
2020,12,06,14,39,10.40
2020,12,06,14,40,10.40
2020,12,06,14,41,10.40
2020,12,06,14,42,10.50
2020,12,06,14,43,10.50
2020,12,06,14,44,10.50
2020,12,06,14,45,10.50
2020,12,06,14,46,10.60
2020,12,06,14,47,10.50
2020,12,06,14,48,10.60
2020,12,06,14,49,10.60
2020,12,06,14,50,10.60
2020,12,06,14,51,10.60
2020,12,06,14,52,10.60
2020,12,06,14,53,10.60
2020,12,06,14,54,10.60
2020,12,06,14,55,10.60
2020,12,06,14,56,10.60
2020,12,06,14,57,10.60
2020,12,06,14,58,10.60
2020,12,06,14,59,10.60
2020,12,06,15,00,10.60
2020,12,06,15,01,10.60
2020,12,06,15,02,10.60
2020,12,06,15,03,10.70
2020,12,06,15,04,10.70
2020,12,06,15,05,10.70
2020,12,06,15,06,10.70
2020,12,06,15,07,10.60
2020,12,06,15,08,10.60
2020,12,06,15,09,10.60
2020,12,06,15,10,10.60
2020,12,06,15,11,10.60
2020,12,06,15,12,10.60
2020,12,06,15,13,10.60
2020,12,06,15,14,10.60
2020,12,06,15,15,10.60
2020,12,06,15,16,10.60
2020,12,06,15,17,10.50
2020,12,06,15,18,10.50
2020,12,06,15,19,10.50
2020,12,06,15,20,10.50
2020,12,06,15,21,10.50
2020,12,06,15,22,10.50
2020,12,06,15,23,10.40
2020,12,06,15,24,10.40
2020,12,06,15,25,10.40
2020,12,06,15,26,10.40
2020,12,06,15,27,10.40
2020,12,06,15,28,10.40
2020,12,06,15,29,10.40
2020,12,06,15,30,10.40
2020,12,06,15,31,10.40
2020,12,06,15,32,10.40
2020,12,06,15,33,10.40
2020,12,06,15,34,10.40
2020,12,06,15,35,10.40
2020,12,06,15,36,10.40
2020,12,06,15,37,10.40
2020,12,06,15,38,10.40
2020,12,06,15,39,10.40
2020,12,06,15,40,10.30
2020,12,06,15,41,10.40
2020,12,06,15,42,10.30
2020,12,06,15,43,10.30
2020,12,06,15,44,10.40
2020,12,06,15,45,10.30
2020,12,06,15,46,10.30
2020,12,06,15,47,10.30
2020,12,06,15,48,10.30
2020,12,06,15,49,10.30
2020,12,06,15,50,10.30
2020,12,06,15,51,10.30
2020,12,06,15,52,10.30
2020,12,06,15,53,10.20
2020,12,06,15,54,10.20
2020,12,06,15,55,10.20
2020,12,06,15,56,10.20
2020,12,06,15,57,10.20
2020,12,06,15,58,10.10
2020,12,06,15,59,10.10
2020,12,06,16,00,10.10
2020,12,06,16,01,10.10
2020,12,06,16,02,10.10
2020,12,06,16,03,10.00
2020,12,06,16,04,10.00
2020,12,06,16,05,10.00
2020,12,06,16,06,10.00
2020,12,06,16,07,10.00
2020,12,06,16,08,10.00
2020,12,06,16,09,10.00
2020,12,06,16,10,9.90
2020,12,06,16,11,9.90
2020,12,06,16,12,9.90
2020,12,06,16,13,9.90
2020,12,06,16,14,9.90
2020,12,06,16,15,9.90
2020,12,06,16,16,9.90
2020,12,06,16,17,9.90
2020,12,06,16,18,9.80
2020,12,06,16,19,9.80
2020,12,06,16,20,9.80
2020,12,06,16,21,9.80
2020,12,06,16,22,9.80
2020,12,06,16,23,9.80
2020,12,06,16,24,9.80
2020,12,06,16,25,9.80
2020,12,06,16,26,9.80
2020,12,06,16,27,9.80
2020,12,06,16,28,9.80
2020,12,06,16,29,9.80
2020,12,06,16,30,9.80
2020,12,06,16,31,9.80
2020,12,06,16,32,9.80
2020,12,06,16,33,9.80
2020,12,06,16,34,9.80
2020,12,06,16,35,9.80
2020,12,06,16,36,9.70
2020,12,06,16,37,9.70
2020,12,06,16,38,9.70
2020,12,06,16,39,9.70
2020,12,06,16,40,9.70
2020,12,06,16,41,9.70
2020,12,06,16,42,9.70
2020,12,06,16,43,9.70
2020,12,06,16,44,9.70
2020,12,06,16,45,9.70
2020,12,06,16,46,9.70
2020,12,06,16,47,9.70
2020,12,06,16,48,9.60
2020,12,06,16,49,9.60
2020,12,06,16,50,9.60
2020,12,06,16,51,9.60
2020,12,06,16,52,9.60
2020,12,06,16,53,9.60
2020,12,06,16,54,9.60
2020,12,06,16,55,9.60
2020,12,06,16,56,9.50
2020,12,06,16,57,9.50
2020,12,06,16,58,9.50
2020,12,06,16,59,9.50
2020,12,06,17,00,9.50
2020,12,06,17,01,9.50
2020,12,06,17,02,9.50
2020,12,06,17,03,9.50
2020,12,06,17,04,9.50
2020,12,06,17,05,9.50
2020,12,06,17,06,9.50
2020,12,06,17,07,9.50
2020,12,06,17,08,9.40
2020,12,06,17,09,9.50
2020,12,06,17,10,9.50
2020,12,06,17,11,9.50
2020,12,06,17,12,9.50
2020,12,06,17,13,9.50
2020,12,06,17,14,9.50
2020,12,06,17,15,9.50
2020,12,06,17,16,9.50
2020,12,06,17,17,9.50
2020,12,06,17,18,9.50
2020,12,06,17,19,9.50
2020,12,06,17,20,9.40
2020,12,06,17,21,9.40
2020,12,06,17,22,9.40
2020,12,06,17,23,9.40
2020,12,06,17,24,9.40
2020,12,06,17,25,9.40
2020,12,06,17,26,9.40
2020,12,06,17,27,9.40
2020,12,06,17,28,9.40
2020,12,06,17,29,9.40
2020,12,06,17,30,9.40
2020,12,06,17,31,9.40
2020,12,06,17,32,9.40
2020,12,06,17,33,9.40
2020,12,06,17,34,9.40
2020,12,06,17,35,9.40
2020,12,06,17,36,9.40
2020,12,06,17,37,9.40
2020,12,06,17,38,9.40
2020,12,06,17,39,9.40
2020,12,06,17,40,9.30
2020,12,06,17,41,9.30
2020,12,06,17,42,9.30
2020,12,06,17,43,9.30
2020,12,06,17,44,9.30
2020,12,06,17,45,9.30
2020,12,06,17,46,9.30
2020,12,06,17,47,9.30
2020,12,06,17,48,9.30
2020,12,06,17,49,9.30